Hat Yai, Thailand

4:16 PM ICT on February 21, 2017 (GMT +0700)
Hat Yai International

Weather History for VTSS - October, 2011

Change the Weather History Date:

Friday, October 14, 2011

  Actual Average Record
Temperature  
Mean Temperature 83 °F -  
Max Temperature 93 °F 85 °F 93 °F (2008)
Min Temperature 73 °F 74 °F 72 °F (2014)
Cooling Degree Days 18    
Growing Degree Days 33 (Base 50)    
Moisture  
Dew Point 74 °F    
Average Humidity 76    
Maximum Humidity 94    
Minimum Humidity 55    
Precipitation  
Precipitation 0.00 in - - ()
Sea Level Pressure  
Sea Level Pressure 29.82 in    
Wind  
Wind Speed 1 mph ()    
Max Wind Speed 6 mph    
Max Gust Speed -    
Visibility 5.5 miles    
Events Fog    
Averages and records for this station are not official NWS values.
T = Trace of Precipitation, MM = Missing Value Source: Averaged Metar Reports

Daily Weather History Graph

Daily Weather History Graph

Search for Another Location

Airport or City:

Trip Planner

Search our weather history database for the weather conditions in past years. The results will help you decide how hot, cold, wet, or windy it might be!

Date:

Astronomy

Oct. 14, 2011 Rise Set
Actual Time 6:04 AM ICT 6:03 PM ICT
Civil Twilight 5:43 AM ICT 6:24 PM ICT
Nautical Twilight 5:19 AM ICT 6:49 PM ICT
Astronomical Twilight 4:55 AM ICT 7:13 PM ICT
Moon 7:34 PM ICT (10/14) 7:29 AM ICT (10/14)
Length of Visible Light 12h 40m
Length of Day
11h 58m
Waning Gibbous, 96% of the Moon is Illuminated
Oct 14
Waning Gibbous
Oct 20
Last Quarter
Oct 27
New
Nov 2
First Quarter
Nov 11
Full

Hourly Weather History & Observations

Time (ICT) Temp. Heat Index Dew Point Humidity Pressure Visibility Wind Dir Wind Speed Gust Speed Precip Events Conditions
12:00 AM 77.0 °F - 71.6 °F 83% 29.86 in 3.7 mi Calm Calm - N/A   Mostly Cloudy
12:30 AM 77.0 °F - 71.6 °F 83% 29.86 in 3.7 mi Calm Calm - N/A   Mostly Cloudy
1:00 AM 76 °F - 72 °F 82% 29.86 in 4 mi Calm Calm - -   Mist
1:00 AM 75.2 °F - 71.6 °F 89% 29.83 in 3.7 mi Calm Calm - N/A   Mostly Cloudy
1:30 AM 75.2 °F - 71.6 °F 89% 29.83 in 5.0 mi Calm Calm - N/A   Mostly Cloudy
2:00 AM 75.2 °F - 71.6 °F 89% 29.83 in - Calm Calm - N/A   Mostly Cloudy
2:30 AM 75.2 °F - 71.6 °F 89% 29.83 in 5.6 mi Calm Calm - N/A   Mostly Cloudy
3:00 AM 75.2 °F - 71.6 °F 89% 29.83 in 5.6 mi Calm Calm - N/A   Mostly Cloudy
3:05 AM 75.2 °F - 71.6 °F 89% 29.83 in 5.6 mi Calm Calm - N/A   Mostly Cloudy
3:30 AM 75.2 °F - 71.6 °F 89% 29.80 in 5.6 mi Calm Calm - N/A   Mostly Cloudy
4:00 AM 75.2 °F - 71.6 °F 89% 29.80 in 5.6 mi Calm Calm - N/A   Mostly Cloudy
4:30 AM 73.4 °F - 69.8 °F 88% 29.80 in 5.6 mi Calm Calm - N/A   Mostly Cloudy
5:00 AM 73.4 °F - 69.8 °F 88% 29.83 in 2.5 mi Calm Calm - N/A   Mostly Cloudy
6:00 AM 73.4 °F - 69.8 °F 88% 29.83 in 0.5 mi Calm Calm - N/A Fog Fog
6:30 AM 73.4 °F - 69.8 °F 88% 29.83 in 0.3 mi Calm Calm - N/A Fog Fog
7:00 AM 74 °F - 71 °F 86% 29.86 in 4 mi Calm Calm - -   Mist
7:00 AM 73.4 °F - 71.6 °F 94% 29.83 in 3.7 mi Calm Calm - N/A   Scattered Clouds
7:30 AM 77.0 °F - 73.4 °F 89% 29.86 in 5.6 mi West 2.3 mph - N/A   Scattered Clouds
8:00 AM 78.8 °F - 75.2 °F 89% 29.86 in 5.6 mi WNW 2.3 mph - N/A   Scattered Clouds
8:30 AM 82.4 °F 90.9 °F 77.0 °F 84% 29.86 in 6.2 mi Calm Calm - N/A   Scattered Clouds
9:00 AM 84.2 °F 96.1 °F 78.8 °F 84% 29.89 in 6.2 mi Calm Calm - N/A   Scattered Clouds
9:30 AM 86.0 °F 101.9 °F 80.6 °F 84% 29.89 in 6.2 mi Calm Calm - N/A   Scattered Clouds
10:00 AM 87.8 °F 104.9 °F 80.6 °F 79% 29.89 in 6.2 mi NNE 4.6 mph - N/A   Scattered Clouds
10:30 AM 87.8 °F 104.9 °F 80.6 °F 79% 29.89 in 6.2 mi ENE 5.8 mph - N/A   Scattered Clouds
11:00 AM 89.6 °F 108.2 °F 80.6 °F 75% 29.86 in 6.2 mi Calm Calm - N/A   Scattered Clouds
11:30 AM 89.6 °F 104.7 °F 78.8 °F 70% 29.86 in 6.2 mi NNW 3.5 mph - N/A   Scattered Clouds
12:00 PM 93.2 °F 117.1 °F 82.4 °F 71% 29.83 in 6.2 mi Variable 3.5 mph - N/A   Scattered Clouds
12:30 PM 91.4 °F 107.2 °F 78.8 °F 66% 29.83 in 6.2 mi WSW 3.5 mph - N/A   Scattered Clouds
1:00 PM 91 °F - 78 °F 59% 29.81 in 6 mi West 3.5 mph - -   Partly Cloudy
1:00 PM 91.4 °F 107.2 °F 78.8 °F 66% 29.80 in 6.2 mi West 3.5 mph - N/A   Scattered Clouds
1:30 PM 91.4 °F 107.2 °F 78.8 °F 66% 29.77 in 6.2 mi SSW 4.6 mph - N/A   Scattered Clouds
2:00 PM 93.2 °F 107.2 °F 77.0 °F 59% 29.77 in 6.2 mi SW 4.6 mph - N/A   Scattered Clouds
2:30 PM 93.2 °F 107.2 °F 77.0 °F 59% 29.74 in 6.2 mi SW 4.6 mph - N/A   Scattered Clouds
3:00 PM 93.2 °F 107.2 °F 77.0 °F 59% 29.74 in 6.2 mi SW 5.8 mph - N/A   Scattered Clouds
3:30 PM 93.2 °F 105.0 °F 75.2 °F 56% 29.71 in 6.2 mi SSW 5.8 mph - N/A   Scattered Clouds
4:00 PM 93.2 °F 105.0 °F 75.2 °F 56% 29.71 in 6.2 mi West 3.5 mph - N/A   Scattered Clouds
4:30 PM 93.2 °F 105.0 °F 75.2 °F 56% 29.71 in 6.2 mi West 5.8 mph - N/A   Scattered Clouds
5:00 PM 91.4 °F 100.1 °F 73.4 °F 55% 29.74 in 6.2 mi SW 4.6 mph - N/A   Scattered Clouds
5:30 PM 89.6 °F 98.2 °F 73.4 °F 59% 29.74 in 6.2 mi WNW 4.6 mph - N/A   Scattered Clouds
6:00 PM 87.8 °F 93.8 °F 71.6 °F 58% 29.74 in 6.2 mi WNW 3.5 mph - N/A   Mostly Cloudy
6:30 PM 86.0 °F 91.8 °F 71.6 °F 62% 29.77 in 6.2 mi NNE 3.5 mph - N/A   Mostly Cloudy
7:00 PM 85 °F - 72 °F 58% 29.81 in 6 mi Calm Calm - -   Scattered Clouds
7:00 PM 84.2 °F 90.9 °F 73.4 °F 70% 29.80 in 6.2 mi Calm Calm - N/A   Mostly Cloudy
7:30 PM 84.2 °F 90.9 °F 73.4 °F 70% 29.80 in 6.2 mi Calm Calm - N/A   Mostly Cloudy
8:00 PM 84.2 °F 90.9 °F 73.4 °F 70% 29.80 in 6.2 mi Calm Calm - N/A   Mostly Cloudy
8:30 PM 82.4 °F 87.2 °F 71.6 °F 70% 29.83 in 6.2 mi Calm Calm - N/A   Mostly Cloudy
9:00 PM 80.6 °F 84.6 °F 71.6 °F 74% 29.83 in 6.2 mi Calm Calm - N/A   Mostly Cloudy
9:30 PM 78.8 °F - 69.8 °F 74% 29.86 in 6.2 mi Calm Calm - N/A   Mostly Cloudy
10:00 PM 78.8 °F - 71.6 °F 78% 29.86 in 6.2 mi Calm Calm - N/A   Mostly Cloudy
10:30 PM 78.8 °F - 71.6 °F 78% 29.86 in 6.2 mi Calm Calm - N/A   Mostly Cloudy
11:00 PM 77.0 °F - 69.8 °F 78% 29.86 in 6.2 mi Calm Calm - N/A   Mostly Cloudy
11:30 PM 77.0 °F - 71.6 °F 83% 29.83 in 6.2 mi Calm Calm - N/A   Mostly Cloudy